weather.gov     
National Weather Service

Regional Weather Roundup
NWS Homepage
This page is being discontinued on March 12, 2014.
The same data is available at this site. Please update your bookmarks.
Thank you, and we apologize for the inconvenience.
Please send an email to SR-SRH.Webmaster@noaa.gov with any concerns.


Current Version
Previous Version:    01  02  03  04  05  06  07  08  09  10  11  12  13  14  15  16  17  18  19  20  21  22  23  24  25  26  
[Printable]
915
ASUS45 KGGW 180215
RWRGGW
HOURLY WEATHER ROUNDUP FOR NORTHEAST MONTANA
NATIONAL WEATHER SERVICE GLASGOW MONTANA
700 PM MST WED DEC 17 2014

NOTE: "FAIR" INDICATES FEW OR NO CLOUDS BELOW 12,000 FEET WITH NO
SIGNIFICANT WEATHER AND/OR OBSTRUCTIONS TO VISISBILITY.

NORTHEAST MONTANA


CITY           SKY/WX    TMP DP  RH WIND       PRES   REMARKS
GLASGOW        CLOUDY    23  18  81 E9        29.98F
PLENTYWOOD       N/A     18  17  96 S12         N/A
WOLF POINT     CLOUDY    25  18  74 E7        30.03F
JORDAN           N/A     26  22  84 SE7       29.96R
SIDNEY         CLOUDY    21  16  79 E8        30.08S
GLENDIVE       MOCLDY    21  18  86 SE10      30.02S
MALTA            N/A     26  24  92 E3          N/A

FORT PECK REPORTS


CITY           SKY/WX    TMP DP  RH WIND       PRES   REMARKS
FORT PECK        N/A     26  23  88 SE12        N/A
THE PINES        N/A     26  22  84 SE6         N/A

SOUTHEAST MONTANA


CITY           SKY/WX    TMP DP  RH WIND       PRES   REMARKS
BILLINGS       MOCLDY    31  22  69 SW18      29.92S
MILES CITY     CLOUDY    24  20  84 SE7       29.97F
BAKER          CLOUDY    20  19  96 SE14      30.00S
LIVINGSTON     CLEAR     31  20  63 SW12      29.89S

CENTRAL MONTANA


CITY           SKY/WX    TMP DP  RH WIND       PRES   REMARKS
HAVRE          CLEAR     19  17  92 E5        29.92R
LEWISTOWN      CLOUDY    31  27  85 S6        29.87S
GREAT FALLS    CLEAR     30  25  81 S12       29.86R
CUT BANK       FOG        9   6  88 N5        29.85S VSB 1/4
HELENA         CLEAR     26  22  84 S5        29.93R
BUTTE          PTCLDY    15  12  88 CALM      29.93R
BOZEMAN        CLEAR     23  18  81 S10       29.94R

WESTERN MONTANA


CITY           SKY/WX    TMP DP  RH WIND       PRES   REMARKS
MISSOULA       PTCLDY    26  22  84 CALM      29.97R
KALISPELL      NOT AVBL

NORTH DAKOTA


CITY           SKY/WX    TMP DP  RH WIND       PRES   REMARKS
WILLISTON      CLOUDY    20  14  77 SE7       30.09S
DICKINSON      CLOUDY    18  14  84 S12       30.04F
MINOT          PTCLDY     8   4  83 SE8       30.17S
BISMARCK       MOCLDY    15  11  83 SE6       30.20S

SOUTHERN SASKATCHEWAN


CITY           SKY/WX    TMP DP  RH WIND       PRES   REMARKS
REGINA         FLURRIES  16  14  93 S15       30.06S
ESTEVAN        FLURRIES  16  12  86 S13       30.10F
SWIFT CURRENT  CLOUDY    21  19  93 S17G23    29.89S FOG





U.S. Dept. of Commerce
NOAA National Weather Service
1325 East West Highway
Silver Spring, MD 20910
E-mail: w-nws.webmaster@noaa.gov
Page last modified: May 16, 2007
NATIONAL WEATHER SERVICE: for Safety, for Work, for Fun - FOR LIFE